| time (UTC) | temp C | wind direction | speed KPH | gust KPH | rain 1hr cm | rain 24hr cm | rain mn cm | humidity % | barometer mb |
| 20260505040503 | 17 | 34 | 1.6 | 3.2 | 0.00 | 0.00 | 0.00 | 66 | 1011.9 |
| 20260505040002 | 17 | 51 | 0.0 | 1.6 | 0.00 | 0.00 | 0.00 | 65 | 1011.8 |
| 20260505035505 | 17 | 292 | 0.0 | 3.2 | 0.00 | 0.00 | 0.00 | 65 | 1011.7 |
| 20260505035002 | 18 | 282 | 0.0 | 3.2 | 0.00 | 0.00 | 0.00 | 64 | 1011.6 |
| 20260505034504 | 18 | 9 | 0.0 | 3.2 | 0.00 | 0.00 | 0.00 | 61 | 1011.5 |
| 20260505034003 | 18 | 9 | 0.0 | 1.6 | 0.00 | 0.00 | 0.00 | 60 | 1011.4 |
| 20260505033503 | 19 | 9 | 0.0 | 1.6 | 0.00 | 0.00 | 0.00 | 59 | 1011.4 |
| 20260505033007 | 19 | 51 | 0.0 | 1.6 | 0.00 | 0.00 | 0.00 | 58 | 1011.4 |
| 20260505032507 | 19 | 93 | 0.0 | 1.6 | 0.00 | 0.00 | 0.00 | 58 | 1011.3 |
| 20260505032005 | 20 | 9 | 0.0 | 3.2 | 0.00 | 0.00 | 0.00 | 55 | 1011.3 |
| 20260505031503 | 20 | 265 | 0.0 | 3.2 | 0.00 | 0.00 | 0.00 | 54 | 1011.2 |
| 20260505031007 | 20 | 265 | 0.0 | 3.2 | 0.00 | 0.00 | 0.00 | 54 | 1011.1 |
| 20260505030503 | 20 | 9 | 0.0 | 3.2 | 0.00 | 0.00 | 0.00 | 53 | 1011.1 |
| 20260505030004 | 20 | 51 | 0.0 | 4.8 | 0.00 | 0.00 | 0.00 | 52 | 1011.0 |
| 20260505025504 | 21 | 51 | 0.0 | 4.8 | 0.00 | 0.00 | 0.00 | 52 | 1011.0 |
| 20260505025005 | 21 | 34 | 0.0 | 4.8 | 0.00 | 0.00 | 0.00 | 52 | 1010.9 |
| 20260505024504 | 21 | 334 | 1.6 | 4.8 | 0.00 | 0.00 | 0.00 | 51 | 1010.9 |
| 20260505024006 | 21 | 51 | 1.6 | 4.8 | 0.00 | 0.00 | 0.00 | 50 | 1010.9 |
| 20260505023502 | 21 | 51 | 0.0 | 4.8 | 0.00 | 0.00 | 0.00 | 51 | 1010.9 |
| 20260505023003 | 21 | 80 | 0.0 | 6.4 | 0.00 | 0.00 | 0.00 | 51 | 1010.8 |
| 20260505022503 | 22 | 44 | 1.6 | 9.7 | 0.00 | 0.00 | 0.00 | 50 | 1010.7 |
| 20260505022003 | 22 | 325 | 1.6 | 9.7 | 0.00 | 0.00 | 0.00 | 49 | 1010.7 |
| 20260505021503 | 22 | 265 | 1.6 | 4.8 | 0.00 | 0.00 | 0.00 | 49 | 1010.7 |
| 20260505021003 | 22 | 38 | 0.0 | 4.8 | 0.00 | 0.00 | 0.00 | 47 | 1010.7 |
| 20260505020503 | 22 | 51 | 0.0 | 6.4 | 0.00 | 0.00 | 0.00 | 45 | 1010.6 |
| 20260505020003 | 22 | 51 | 1.6 | 6.4 | 0.00 | 0.00 | 0.00 | 44 | 1010.4 |
| 20260505015503 | 23 | 70 | 1.6 | 6.4 | 0.00 | 0.00 | 0.00 | 44 | 1010.5 |
| 20260505015011 | 23 | 59 | 0.0 | 6.4 | 0.00 | 0.00 | 0.00 | 45 | 1010.5 |
| 20260505014523 | 23 | 153 | 0.0 | 6.4 | 0.00 | 0.00 | 0.00 | 45 | 1010.5 |
| 20260505014009 | 23 | 93 | 0.0 | 4.8 | 0.00 | 0.00 | 0.00 | 45 | 1010.4 |
| 20260505013506 | 23 | 126 | 0.0 | 4.8 | 0.00 | 0.00 | 0.00 | 46 | 1010.5 |
| 20260505013026 | 23 | 239 | 0.0 | 6.4 | 0.00 | 0.00 | 0.00 | 46 | 1010.5 |
| 20260505012507 | 23 | 291 | 0.0 | 6.4 | 0.00 | 0.00 | 0.00 | 46 | 1010.6 |
| 20260505012008 | 23 | 137 | 0.0 | 8.0 | 0.00 | 0.00 | 0.00 | 46 | 1010.6 |
| 20260505011523 | 23 | 144 | 1.6 | 8.0 | 0.00 | 0.00 | 0.00 | 46 | 1010.6 |
| 20260505011010 | 23 | 148 | 1.6 | 6.4 | 0.00 | 0.00 | 0.00 | 46 | 1010.6 |
| 20260505010510 | 23 | 178 | 0.0 | 6.4 | 0.00 | 0.00 | 0.00 | 47 | 1010.6 |
| 20260505010025 | 23 | 325 | 0.0 | 11.3 | 0.00 | 0.00 | 0.00 | 47 | 1010.7 |
| 20260505005510 | 23 | 9 | 1.6 | 11.3 | 0.00 | 0.00 | 0.00 | 45 | 1010.7 |
| 20260505005010 | 23 | 103 | 1.6 | 11.3 | 0.00 | 0.00 | 0.00 | 44 | 1010.6 |
| 20260505004536 | 24 | 137 | 1.6 | 9.7 | 0.00 | 0.00 | 0.00 | 45 | 1010.6 |
| 20260505004010 | 24 | 102 | 0.0 | 8.0 | 0.00 | 0.00 | 0.00 | 43 | 1010.7 |
| 20260505003515 | 24 | 61 | 1.6 | 8.0 | 0.00 | 0.00 | 0.00 | 43 | 1010.7 |
| 20260505003021 | 24 | 148 | 1.6 | 4.8 | 0.00 | 0.00 | 0.00 | 42 | 1010.7 |
| 20260505002507 | 25 | 51 | 0.0 | 8.0 | 0.00 | 0.00 | 0.00 | 43 | 1010.7 |
| 20260505002010 | 25 | 34 | 3.2 | 8.0 | 0.00 | 0.00 | 0.00 | 42 | 1010.8 |
| 20260505001524 | 24 | 51 | 1.6 | 8.0 | 0.00 | 0.00 | 0.00 | 42 | 1010.7 |
| 20260505001006 | 25 | 178 | 1.6 | 6.4 | 0.00 | 0.00 | 0.00 | 40 | 1010.8 |
| 20260505000507 | 25 | 51 | 1.6 | 6.4 | 0.00 | 0.00 | 0.00 | 44 | 1010.8 |
| 20260505000027 | 25 | 178 | 3.2 | 11.3 | 0.00 | 0.00 | 0.00 | 44 | 1010.8 |
| 20260504235507 | 25 | 196 | 1.6 | 11.3 | 0.00 | 0.00 | 0.00 | 43 | 1010.8 |
| 20260504235007 | 25 | 140 | 3.2 | 9.7 | 0.00 | 0.00 | 0.00 | 42 | 1010.9 |
| 20260504234530 | 25 | 239 | 3.2 | 9.7 | 0.00 | 0.00 | 0.00 | 40 | 1010.9 |
| 20260504234008 | 25 | 153 | 1.6 | 8.0 | 0.00 | 0.00 | 0.00 | 44 | 1010.9 |
| 20260504233508 | 25 | 142 | 1.6 | 6.4 | 0.00 | 0.00 | 0.00 | 42 | 1011.0 |
| 20260504233027 | 25 | 51 | 1.6 | 4.8 | 0.00 | 0.00 | 0.00 | 40 | 1011.0 |
| 20260504232510 | 25 | 164 | 0.0 | 8.0 | 0.00 | 0.00 | 0.00 | 43 | 1011.0 |
| 20260504232013 | 25 | 93 | 3.2 | 8.0 | 0.00 | 0.00 | 0.00 | 38 | 1010.9 |
| 20260504231537 | 25 | 144 | 3.2 | 6.4 | 0.00 | 0.00 | 0.00 | 39 | 1011.0 |
| 20260504231008 | 25 | 144 | 1.6 | 6.4 | 0.00 | 0.00 | 0.00 | 39 | 1011.1 |
| 20260504230507 | 25 | 144 | 0.0 | 6.4 | 0.00 | 0.00 | 0.00 | 40 | 1011.1 |
| 20260504230027 | 25 | 115 | 1.6 | 11.3 | 0.00 | 0.00 | 0.00 | 43 | 1011.2 |
| 20260504225513 | 25 | 265 | 1.6 | 11.3 | 0.00 | 0.00 | 0.00 | 43 | 1011.1 |
| 20260504225011 | 25 | 113 | 3.2 | 9.7 | 0.00 | 0.00 | 0.00 | 41 | 1011.2 |
| 20260504224527 | 25 | 157 | 3.2 | 12.9 | 0.00 | 0.00 | 0.00 | 44 | 1011.2 |
| 20260504224006 | 25 | 74 | 3.2 | 12.9 | 0.00 | 0.00 | 0.00 | 44 | 1011.3 |
| 20260504223508 | 25 | 178 | 1.6 | 11.3 | 0.00 | 0.00 | 0.00 | 44 | 1011.2 |
| 20260504223022 | 25 | 188 | 6.4 | 14.5 | 0.00 | 0.00 | 0.00 | 43 | 1011.3 |
| 20260504222508 | 25 | 164 | 4.8 | 14.5 | 0.00 | 0.00 | 0.00 | 44 | 1011.3 |
| 20260504222011 | 25 | 157 | 3.2 | 12.9 | 0.00 | 0.00 | 0.00 | 44 | 1011.3 |
| 20260504221524 | 25 | 156 | 4.8 | 11.3 | 0.00 | 0.00 | 0.00 | 40 | 1011.3 |
| 20260504220503 | 25 | 120 | 1.6 | 12.9 | 0.00 | 0.00 | 0.00 | 46 | 1011.4 |
| 20260504220004 | 25 | 148 | 4.8 | 11.3 | 0.00 | 0.00 | 0.00 | 46 | 1011.5 |
| 20260504215503 | 25 | 76 | 0.0 | 14.5 | 0.00 | 0.00 | 0.00 | 47 | 1011.6 |
| 20260504215005 | 25 | 140 | 3.2 | 14.5 | 0.00 | 0.00 | 0.00 | 44 | 1011.6 |
| 20260504214504 | 25 | 178 | 3.2 | 12.9 | 0.00 | 0.00 | 0.00 | 43 | 1011.6 |
| 20260504214004 | 25 | 146 | 1.6 | 12.9 | 0.00 | 0.00 | 0.00 | 48 | 1011.7 |
| 20260504213503 | 25 | 144 | 1.6 | 11.3 | 0.00 | 0.00 | 0.00 | 44 | 1011.7 |
| 20260504213006 | 25 | 123 | 4.8 | 12.9 | 0.00 | 0.00 | 0.00 | 47 | 1011.8 |
| 20260504212504 | 24 | 120 | 1.6 | 16.1 | 0.00 | 0.00 | 0.00 | 48 | 1011.8 |
| 20260504212007 | 25 | 130 | 6.4 | 16.1 | 0.00 | 0.00 | 0.00 | 44 | 1011.7 |
| 20260504211503 | 25 | 137 | 3.2 | 11.3 | 0.00 | 0.00 | 0.00 | 47 | 1011.7 |
| 20260504211002 | 25 | 160 | 3.2 | 12.9 | 0.00 | 0.00 | 0.00 | 48 | 1011.8 |
| 20260504210503 | 24 | 55 | 3.2 | 12.9 | 0.00 | 0.00 | 0.00 | 44 | 1011.8 |
| 20260504210007 | 24 | 178 | 4.8 | 11.3 | 0.00 | 0.00 | 0.00 | 49 | 1011.8 |
| 20260504205503 | 24 | 85 | 1.6 | 9.7 | 0.00 | 0.00 | 0.00 | 50 | 1011.9 |
| 20260504205002 | 24 | 51 | 3.2 | 9.7 | 0.00 | 0.00 | 0.00 | 46 | 1011.8 |
| 20260504204505 | 23 | 71 | 1.6 | 16.1 | 0.00 | 0.00 | 0.00 | 50 | 1011.9 |
| 20260504204002 | 23 | 120 | 1.6 | 16.1 | 0.00 | 0.00 | 0.00 | 49 | 1011.9 |
| 20260504203502 | 23 | 54 | 6.4 | 16.1 | 0.00 | 0.00 | 0.00 | 45 | 1012.0 |
| 20260504203002 | 23 | 360 | 3.2 | 11.3 | 0.00 | 0.00 | 0.00 | 47 | 1012.0 |
| 20260504202503 | 23 | 93 | 1.6 | 9.7 | 0.00 | 0.00 | 0.00 | 46 | 1012.0 |
| 20260504202003 | 23 | 193 | 4.8 | 8.0 | 0.00 | 0.00 | 0.00 | 48 | 1011.9 |
| 20260504201503 | 23 | 158 | 1.6 | 11.3 | 0.00 | 0.00 | 0.00 | 50 | 1012.0 |
| 20260504201004 | 23 | 162 | 4.8 | 16.1 | 0.00 | 0.00 | 0.00 | 46 | 1012.0 |
| 20260504200503 | 23 | 76 | 3.2 | 16.1 | 0.00 | 0.00 | 0.00 | 49 | 1012.1 |
| 20260504200008 | 23 | 146 | 3.2 | 8.0 | 0.00 | 0.00 | 0.00 | 47 | 1012.1 |
| 20260504195506 | 23 | 137 | 1.6 | 6.4 | 0.00 | 0.00 | 0.00 | 43 | 1012.1 |
| 20260504195002 | 23 | 291 | 1.6 | 8.0 | 0.00 | 0.00 | 0.00 | 49 | 1012.1 |
| 20260504194507 | 23 | 117 | 1.6 | 8.0 | 0.00 | 0.00 | 0.00 | 48 | 1012.0 |
| 20260504194003 | 22 | 265 | 1.6 | 14.5 | 0.00 | 0.00 | 0.00 | 53 | 1012.0 |
| 20260504193503 | 22 | 170 | 4.8 | 14.5 | 0.00 | 0.00 | 0.00 | 47 | 1012.0 |
| 20260504193009 | 22 | 164 | 6.4 | 14.5 | 0.00 | 0.00 | 0.00 | 53 | 1012.0 |
| 20260504192502 | 22 | 115 | 3.2 | 12.9 | 0.00 | 0.00 | 0.00 | 52 | 1012.1 |
| 20260504192005 | 22 | 148 | 4.8 | 17.7 | 0.00 | 0.00 | 0.00 | 46 | 1012.1 |
| 20260504191502 | 22 | 178 | 4.8 | 17.7 | 0.00 | 0.00 | 0.00 | 50 | 1012.0 |
| 20260504191002 | 22 | 156 | 3.2 | 14.5 | 0.00 | 0.00 | 0.00 | 47 | 1012.1 |
| 20260504190502 | 23 | 153 | 3.2 | 12.9 | 0.00 | 0.00 | 0.00 | 53 | 1012.2 |
| 20260504190007 | 22 | 93 | 1.6 | 12.9 | 0.00 | 0.00 | 0.00 | 47 | 1012.2 |
| 20260504185501 | 23 | 153 | 4.8 | 9.7 | 0.00 | 0.00 | 0.00 | 46 | 1012.3 |
| 20260504185002 | 22 | 68 | 1.6 | 6.4 | 0.00 | 0.00 | 0.00 | 55 | 1012.2 |
| 20260504184504 | 22 | 319 | 0.0 | 11.3 | 0.00 | 0.00 | 0.00 | 50 | 1012.3 |
| 20260504184004 | 22 | 146 | 3.2 | 11.3 | 0.00 | 0.00 | 0.00 | 51 | 1012.4 |
| 20260504183502 | 22 | 160 | 3.2 | 12.9 | 0.00 | 0.00 | 0.00 | 50 | 1012.3 |
| 20260504183006 | 21 | 141 | 3.2 | 12.9 | 0.00 | 0.00 | 0.00 | 53 | 1012.4 |
| 20260504182501 | 21 | 93 | 4.8 | 12.9 | 0.00 | 0.00 | 0.00 | 48 | 1012.3 |
| 20260504182002 | 21 | 140 | 6.4 | 11.3 | 0.00 | 0.00 | 0.00 | 50 | 1012.3 |
| 20260504181503 | 22 | 126 | 4.8 | 9.7 | 0.00 | 0.00 | 0.00 | 51 | 1012.3 |
| 20260504181002 | 22 | 200 | 3.2 | 9.7 | 0.00 | 0.00 | 0.00 | 53 | 1012.3 |
| 20260504180504 | 21 | 93 | 1.6 | 9.7 | 0.00 | 0.00 | 0.00 | 53 | 1012.2 |
| 20260504180004 | 21 | 68 | 1.6 | 8.0 | 0.00 | 0.00 | 0.00 | 60 | 1012.1 |
| 20260504175502 | 21 | 265 | 3.2 | 11.3 | 0.00 | 0.00 | 0.00 | 60 | 1012.0 |
| 20260504175003 | 21 | 178 | 3.2 | 11.3 | 0.00 | 0.00 | 0.00 | 55 | 1012.1 |
| 20260504174503 | 21 | 161 | 4.8 | 14.5 | 0.00 | 0.00 | 0.00 | 57 | 1012.0 |
| 20260504174005 | 21 | 133 | 6.4 | 14.5 | 0.00 | 0.00 | 0.00 | 56 | 1012.0 |
| 20260504173502 | 21 | 126 | 1.6 | 11.3 | 0.00 | 0.00 | 0.00 | 59 | 1012.0 |
| 20260504173002 | 20 | 184 | 4.8 | 11.3 | 0.00 | 0.00 | 0.00 | 56 | 1011.9 |
| 20260504172502 | 20 | 178 | 3.2 | 9.7 | 0.00 | 0.00 | 0.00 | 54 | 1012.0 |
| 20260504172009 | 20 | 151 | 3.2 | 11.3 | 0.00 | 0.00 | 0.00 | 56 | 1012.1 |
| 20260504171507 | 20 | 153 | 3.2 | 12.9 | 0.00 | 0.00 | 0.00 | 61 | 1012.0 |
| 20260504171010 | 20 | 162 | 8.0 | 12.9 | 0.00 | 0.00 | 0.00 | 56 | 1012.1 |
| 20260504170502 | 20 | 178 | 6.4 | 11.3 | 0.00 | 0.00 | 0.00 | 56 | 1012.2 |
| 20260504151009 | 11 | 51 | 1.6 | 3.2 | 0.00 | 0.00 | 0.00 | 95 | 1011.8 |
| 20260504150510 | 10 | 61 | 1.6 | 4.8 | 0.00 | 0.00 | 0.00 | 95 | 1011.7 |
| 20260504141009 | 8 | 46 | 0.0 | 3.2 | 0.00 | 0.00 | 0.00 | 93 | 1011.2 |
| 20260504140508 | 8 | 93 | 0.0 | 3.2 | 0.00 | 0.00 | 0.00 | 93 | 1011.2 |
| 20260504130503 | 8 | 9 | 0.0 | 1.6 | 0.00 | 0.00 | 0.00 | 93 | 1011.0 |
| 20260504110502 | 9 | 51 | 0.0 | 3.2 | 0.00 | 0.00 | 0.00 | 91 | 1011.0 |
| 20260504100502 | 9 | 9 | 0.0 | 1.6 | 0.00 | 0.00 | 0.00 | 90 | 1011.0 |
| 20260504082003 | 10 | 309 | 0.0 | 3.2 | 0.00 | 0.00 | 0.00 | 86 | 1011.0 |
| 20260504081521 | 10 | 309 | 0.0 | 1.6 | 0.00 | 0.00 | 0.00 | 86 | 1011.0 |
| 20260504081003 | 11 | 51 | 0.0 | 1.6 | 0.00 | 0.00 | 0.00 | 85 | 1011.0 |
| 20260504080503 | 11 | 51 | 0.0 | 1.6 | 0.00 | 0.00 | 0.00 | 85 | 1011.1 |
| 20260504050503 | 15 | 51 | 0.0 | 1.6 | 0.00 | 0.00 | 0.00 | 68 | 1011.2 |
| 20260504050002 | 15 | 9 | 0.0 | 1.6 | 0.00 | 0.00 | 0.00 | 67 | 1011.2 |
| 20260504045502 | 15 | 51 | 0.0 | 1.6 | 0.00 | 0.00 | 0.00 | 66 | 1011.2 |
| 20260504045002 | 15 | 325 | 0.0 | 1.6 | 0.00 | 0.00 | 0.00 | 65 | 1011.3 |
| 20260504044503 | 16 | 265 | 0.0 | 1.6 | 0.00 | 0.00 | 0.00 | 64 | 1011.2 |
| 20260504044002 | 16 | 51 | 0.0 | 1.6 | 0.00 | 0.00 | 0.00 | 64 | 1011.1 |
| 20260504043502 | 16 | 309 | 0.0 | 1.6 | 0.00 | 0.00 | 0.00 | 63 | 1011.1 |
| 20260504043003 | 16 | 319 | 0.0 | 3.2 | 0.00 | 0.00 | 0.00 | 61 | 1011.0 |
| 20260504042503 | 17 | 93 | 0.0 | 3.2 | 0.00 | 0.00 | 0.00 | 60 | 1011.1 |
| 20260504042003 | 17 | 51 | 0.0 | 1.6 | 0.00 | 0.00 | 0.00 | 57 | 1011.0 |
| 20260504041505 | 17 | 265 | 0.0 | 1.6 | 0.00 | 0.00 | 0.00 | 57 | 1011.1 |
| 20260504041003 | 17 | 9 | 0.0 | 1.6 | 0.00 | 0.00 | 0.00 | 56 | 1011.1 |